Hourly Data Report for January 20, 2004

SHERBROOKE A
QUEBEC

45°26'00.000" N
71°41'00.000" W
241.40 m
7028124
71610
YSC

Download Data

Hourly Data (January 2004)
Hourly Data Report for January 20, 2004
TIME
LST
Temp Definition
°C
Dew Point Definition
°C
Rel Hum Definition
%
Precip. Amount Definition
mm

Wind Dir Definition
10's deg

Wind Spd Definition
km/h
Visibility Definition
km
Stn Press Definition
kPa
Hmdx Definition


Wind Chill Definition


Weather Definition


00:00 -11.4 -13.9 82   25 17 2.4 97.19   -19 Snow
01:00 -11.3 -13.8 82   26 17 4.8 97.20   -19 Snow
02:00 -11.4 -14.0 81   26 22 15.0 97.24   -20 Snow
03:00 -11.7 -14.3 81   27 24 11.3 97.28   -21 Snow
04:00 -12.0 -14.6 81   25 13 4.8 97.33   -19 Snow
05:00 -12.4 -15.0 81   25 22 8.0 97.37   -21 Snow
06:00 -12.6 -15.2 81   26 24 9.7 97.44   -22 Snow
07:00 -13.2 -15.9 80   28 32 15.0 97.51   -24  
08:00 -13.6 -16.4 79   25 17 4.8 97.58   -22 Snow Showers
09:00 -13.9 -16.8 79   25 20 6.4 97.62   -23 Snow Showers
10:00 -13.9 -16.9 78   25 28 9.7 97.68   -24 Snow Showers
11:00 -13.9 -16.9 78   27 22 4.0 97.70   -23 Snow Showers
12:00 -13.8 -17.1 76   28 28 16.1 97.69   -24 Snow Showers
13:00 -13.6 -17.1 75   27 26 9.7 97.70   -24 Snow Showers
14:00 -13.6 -17.4 73   26 30 16.1 97.73   -24 Cloudy
15:00 -13.6 -17.4 73   26 22 16.1 97.82   -23 Snow Showers
16:00 -14.3 -17.7 75   27 20 4.0 97.93   -23 Snow Showers
17:00 -14.4 -17.7 76   26 15 2.4 98.02   -22 Snow Showers
18:00 -14.4 -17.6 77   26 13 1.8 98.14   -22 Snow
19:00 -14.2 -17.3 77   26 19 4.8 98.20   -23 Snow
20:00 -13.7 -16.9 77   25 15 3.2 98.23   -21 Snow
21:00 -13.4 -16.4 78   25 13 3.1 98.28   -20 Snow
22:00 -13.2 -16.4 77   25 13 5.6 98.34   -20 Snow
23:00 -13.3 -16.6 76   27 17 6.4 98.37   -21  

Notes on Data Quality.

Legend

  • E = Estimated
  • M = Missing
  • NA = Not Available*
  • [empty] = Indicates an unobserved value
Date modified: